QTR61E OTHH-EGPH

Flight info

Callsign QTR61E
Flight time N/A
Altitude 40000
Route ULIKA M430 KSA T503 OVANO L768 FIRAS R655 KTN R785 NIKAS L619 VESAR UN135 TUKTU/N0486F400 UN135 IMR UN127 RIKSO DCT DISOR DCT LONTA UL608 DOLEV DCT IRDIV DCT PODET DCT SIMBA DCT GASKA DCT MAPOX DCT GODOS DCT AGPED
Aircraft B789/H-SDE1E2E3FGHIJ2J3J4J5M1RWXY/LB1D1

Departure

Time N/A
Airport Hamad International Airport (OTHH)

Arrival

Time 2026-05-01 13:07
Airport Edinburgh Airport (EGPH)
Time Latitude Longitude Altitude Speed Heading
2026-05-01 11:54 51.61340 7.68825 40328 ft 485 kts 304°
2026-05-01 11:54 51.63194 7.64378 40324 ft 485 kts 304°
2026-05-01 11:54 51.66942 7.55357 40327 ft 485 kts 304°
2026-05-01 11:55 51.70694 7.46299 40330 ft 485 kts 303°
2026-05-01 11:55 51.74434 7.37234 40329 ft 486 kts 303°
2026-05-01 11:56 51.78173 7.28142 40330 ft 486 kts 303°
2026-05-01 11:56 51.81901 7.19045 40321 ft 486 kts 303°
2026-05-01 11:57 51.85623 7.09928 40319 ft 486 kts 303°
2026-05-01 11:57 51.89344 7.00783 40315 ft 486 kts 303°
2026-05-01 11:58 51.93026 6.91703 40310 ft 485 kts 303°
2026-05-01 11:59 51.98576 6.77950 40307 ft 486 kts 303°
2026-05-01 11:59 52.02267 6.68766 40308 ft 486 kts 302°
2026-05-01 12:00 52.07795 6.54947 40306 ft 486 kts 302°
2026-05-01 12:01 52.13313 6.41078 40304 ft 486 kts 302°
2026-05-01 12:01 52.16956 6.31879 40301 ft 487 kts 302°
2026-05-01 12:02 52.20617 6.22604 40294 ft 487 kts 302°
2026-05-01 12:02 52.24274 6.13297 40295 ft 487 kts 302°
2026-05-01 12:03 52.27930 6.03977 40297 ft 487 kts 302°
2026-05-01 12:03 52.31571 5.94642 40303 ft 488 kts 301°
2026-05-01 12:04 52.35214 5.85276 40300 ft 488 kts 301°
2026-05-01 12:04 52.38852 5.75890 40302 ft 488 kts 301°
2026-05-01 12:05 52.42480 5.66489 40302 ft 489 kts 301°
2026-05-01 12:05 52.47918 5.52335 40301 ft 489 kts 301°
2026-05-01 12:06 52.51513 5.42941 40305 ft 489 kts 301°
2026-05-01 12:06 52.55123 5.33463 40301 ft 490 kts 301°
2026-05-01 12:07 52.58731 5.23964 40297 ft 490 kts 301°
2026-05-01 12:07 52.62335 5.14432 40295 ft 491 kts 300°
2026-05-01 12:08 52.65942 5.04858 40285 ft 492 kts 300°
2026-05-01 12:08 52.69540 4.95273 40284 ft 492 kts 300°
2026-05-01 12:09 52.73132 4.85668 40278 ft 492 kts 300°
2026-05-01 12:09 52.76718 4.76040 40275 ft 493 kts 300°
2026-05-01 12:10 52.82089 4.61555 40274 ft 493 kts 300°
2026-05-01 12:11 52.87443 4.47029 40274 ft 493 kts 300°
2026-05-01 12:11 52.91003 4.37327 40277 ft 493 kts 300°
2026-05-01 12:12 52.94559 4.27592 40274 ft 494 kts 300°
2026-05-01 12:12 52.98111 4.17836 40279 ft 494 kts 300°
2026-05-01 12:13 53.01623 4.08150 40279 ft 493 kts 300°
2026-05-01 12:13 53.05147 3.98392 40278 ft 491 kts 300°
2026-05-01 12:14 53.08659 3.88631 40279 ft 492 kts 299°
2026-05-01 12:14 53.12168 3.78839 40278 ft 493 kts 299°
2026-05-01 12:15 53.15666 3.69040 40279 ft 492 kts 299°
2026-05-01 12:15 53.19160 3.59213 40279 ft 493 kts 299°
2026-05-01 12:16 53.22649 3.49364 40270 ft 492 kts 299°
2026-05-01 12:16 53.26215 3.39600 40264 ft 493 kts 302°
2026-05-01 12:17 53.29934 3.29954 40251 ft 493 kts 301°
2026-05-01 12:17 53.33619 3.20365 40246 ft 494 kts 301°
2026-05-01 12:18 53.37339 3.10670 40257 ft 495 kts 301°
2026-05-01 12:18 53.41049 3.00935 40253 ft 496 kts 301°
2026-05-01 12:19 53.44759 2.91186 40257 ft 495 kts 301°
2026-05-01 12:19 53.48456 2.81416 40255 ft 496 kts 300°
2026-05-01 12:20 53.52127 2.71690 40251 ft 496 kts 300°
2026-05-01 12:20 53.55804 2.61902 40251 ft 495 kts 300°
2026-05-01 12:21 53.59479 2.52082 40249 ft 496 kts 300°
2026-05-01 12:21 53.63146 2.42246 40250 ft 495 kts 300°
2026-05-01 12:22 53.66803 2.32399 40251 ft 495 kts 300°
2026-05-01 12:22 53.70444 2.22556 40246 ft 495 kts 300°
2026-05-01 12:23 53.74081 2.12683 40246 ft 495 kts 300°
2026-05-01 12:23 53.77719 2.02769 40247 ft 497 kts 300°
2026-05-01 12:24 53.81329 1.92893 40243 ft 497 kts 299°
2026-05-01 12:24 53.84952 1.82942 40238 ft 496 kts 299°
2026-05-01 12:25 53.90378 1.67962 40235 ft 497 kts 299°
2026-05-01 12:26 53.93983 1.57961 40235 ft 496 kts 299°
2026-05-01 12:26 53.99374 1.42925 40219 ft 497 kts 299°
2026-05-01 12:27 54.04738 1.27876 40218 ft 496 kts 298°
2026-05-01 12:28 54.10093 1.12761 40215 ft 496 kts 298°
2026-05-01 12:29 54.15400 0.97687 40218 ft 497 kts 298°
2026-05-01 12:29 54.20712 0.82507 40215 ft 497 kts 298°
2026-05-01 12:30 54.26016 0.67259 40210 ft 497 kts 298°
2026-05-01 12:31 54.29807 0.57349 40208 ft 498 kts 302°
2026-05-01 12:31 54.33119 0.49282 40202 ft 498 kts 302°
2026-05-01 12:32 54.37153 0.39590 40207 ft 499 kts 303°
2026-05-01 12:32 54.43212 0.25047 40196 ft 499 kts 303°
2026-05-01 12:33 54.47250 0.15345 40199 ft 498 kts 303°
2026-05-01 12:33 54.51281 0.05639 40193 ft 498 kts 303°
2026-05-01 12:34 54.55283 -0.04020 40188 ft 499 kts 303°
2026-05-01 12:34 54.59301 -0.13745 40189 ft 497 kts 303°
2026-05-01 12:35 54.63302 -0.23464 40183 ft 497 kts 303°
2026-05-01 12:35 54.67256 -0.33096 40057 ft 487 kts 302°
2026-05-01 12:36 54.69217 -0.37877 39708 ft 488 kts 302°
2026-05-01 12:36 54.71176 -0.42648 39322 ft 483 kts 302°
2026-05-01 12:36 54.73117 -0.47361 38938 ft 478 kts 302°
2026-05-01 12:36 54.75042 -0.52016 38502 ft 474 kts 302°
2026-05-01 12:37 54.76961 -0.56646 38050 ft 474 kts 302°
2026-05-01 12:37 54.78888 -0.61285 37621 ft 476 kts 302°
2026-05-01 12:37 54.80762 -0.66024 37204 ft 477 kts 300°
2026-05-01 12:37 54.82542 -0.70883 36798 ft 478 kts 298°
2026-05-01 12:38 54.84261 -0.75737 36411 ft 478 kts 298°
2026-05-01 12:38 54.86007 -0.80738 36010 ft 479 kts 297°
2026-05-01 12:38 54.87701 -0.85623 35640 ft 480 kts 297°
2026-05-01 12:38 54.89325 -0.90662 35237 ft 472 kts 291°
2026-05-01 12:39 54.90530 -0.95892 34691 ft 462 kts 285°
2026-05-01 12:39 54.91501 -1.01186 34121 ft 456 kts 283°
2026-05-01 12:39 54.92425 -1.06425 33460 ft 452 kts 284°
2026-05-01 12:39 54.93525 -1.11543 32806 ft 451 kts 289°
2026-05-01 12:40 54.94784 -1.16516 32181 ft 447 kts 290°
2026-05-01 12:40 54.95978 -1.21469 31558 ft 442 kts 287°
2026-05-01 12:40 54.97041 -1.26451 30983 ft 437 kts 286°
2026-05-01 12:40 54.98099 -1.31398 30400 ft 434 kts 287°
2026-05-01 12:41 54.99214 -1.36273 29756 ft 432 kts 288°
2026-05-01 12:41 55.00330 -1.41101 29117 ft 428 kts 287°
2026-05-01 12:41 55.01401 -1.45911 28505 ft 423 kts 287°
2026-05-01 12:41 55.02444 -1.50682 27893 ft 420 kts 287°
2026-05-01 12:42 55.03491 -1.55403 27303 ft 416 kts 287°
2026-05-01 12:42 55.04542 -1.60091 26745 ft 413 kts 287°
2026-05-01 12:42 55.05570 -1.64716 26351 ft 405 kts 287°
2026-05-01 12:42 55.06570 -1.69260 26161 ft 397 kts 287°
2026-05-01 12:43 55.07555 -1.73751 26144 ft 399 kts 287°
2026-05-01 12:43 55.08623 -1.78171 25876 ft 389 kts 292°
2026-05-01 12:43 55.09919 -1.82363 24697 ft 401 kts 295°
2026-05-01 12:43 55.11302 -1.86621 24068 ft 402 kts 295°
2026-05-01 12:44 55.12646 -1.90802 23578 ft 397 kts 294°
2026-05-01 12:44 55.13960 -1.95024 23020 ft 393 kts 294°
2026-05-01 12:44 55.16547 -2.03315 21975 ft 384 kts 294°
2026-05-01 12:45 55.19091 -2.11424 20991 ft 378 kts 294°
2026-05-01 12:45 55.20345 -2.15460 20547 ft 377 kts 294°
2026-05-01 12:45 55.21592 -2.19469 20263 ft 373 kts 294°
2026-05-01 12:46 55.22833 -2.23451 20122 ft 371 kts 294°
2026-05-01 12:46 55.24067 -2.27435 20125 ft 375 kts 294°
2026-05-01 12:46 55.25312 -2.31460 20126 ft 376 kts 294°
2026-05-01 12:46 55.26559 -2.35488 20133 ft 376 kts 294°
2026-05-01 12:47 55.27806 -2.39522 20123 ft 376 kts 294°
2026-05-01 12:47 55.29048 -2.43555 20128 ft 376 kts 294°
2026-05-01 12:47 55.30275 -2.47544 20124 ft 376 kts 294°
2026-05-01 12:47 55.31514 -2.51577 20127 ft 375 kts 294°
2026-05-01 12:48 55.32753 -2.55615 20119 ft 375 kts 294°
2026-05-01 12:48 55.33986 -2.59646 20120 ft 375 kts 294°
2026-05-01 12:48 55.35222 -2.63693 20121 ft 376 kts 294°
2026-05-01 12:48 55.36455 -2.67733 20117 ft 373 kts 294°
2026-05-01 12:49 55.37671 -2.71716 19560 ft 370 kts 294°
2026-05-01 12:49 55.38887 -2.75724 18910 ft 371 kts 294°
2026-05-01 12:49 55.40097 -2.79713 18356 ft 368 kts 294°
2026-05-01 12:49 55.41298 -2.83670 17758 ft 365 kts 294°
2026-05-01 12:50 55.42486 -2.87592 17355 ft 357 kts 294°
2026-05-01 12:50 55.43630 -2.91371 17106 ft 340 kts 294°
2026-05-01 12:50 55.44720 -2.94982 16454 ft 330 kts 293°
2026-05-01 12:50 55.46016 -2.98304 15484 ft 336 kts 312°
2026-05-01 12:51 55.47958 -3.00624 14770 ft 338 kts 333°
2026-05-01 12:51 55.50212 -3.01889 14303 ft 337 kts 342°
2026-05-01 12:51 55.54675 -3.04002 13250 ft 333 kts 354°
2026-05-01 12:52 55.56970 -3.03996 12583 ft 331 kts
2026-05-01 12:52 55.61485 -3.03426 11684 ft 324 kts
2026-05-01 12:52 55.63730 -3.03098 11199 ft 323 kts
2026-05-01 12:53 55.68182 -3.02427 10382 ft 316 kts
2026-05-01 12:53 55.70321 -3.02108 9844 ft 305 kts
2026-05-01 12:53 55.72407 -3.01793 9285 ft 296 kts
2026-05-01 12:54 55.74449 -3.01471 8830 ft 293 kts
2026-05-01 12:54 55.78527 -3.00788 7870 ft 293 kts
2026-05-01 12:54 55.80550 -3.00427 7473 ft 290 kts
2026-05-01 12:55 55.84537 -2.99677 6657 ft 285 kts
2026-05-01 12:55 55.86457 -2.99302 6373 ft 267 kts
2026-05-01 12:55 55.88263 -2.98942 5827 ft 257 kts
2026-05-01 12:56 55.90003 -2.98595 5363 ft 246 kts
2026-05-01 12:56 55.91687 -2.98255 4830 ft 242 kts
2026-05-01 12:56 55.93317 -2.98134 4288 ft 236 kts 350°
2026-05-01 12:56 55.94825 -2.99067 4067 ft 223 kts 334°
2026-05-01 12:57 55.96244 -3.00115 3995 ft 219 kts 334°
2026-05-01 12:57 55.99108 -3.02212 3573 ft 226 kts 335°
2026-05-01 12:57 56.00544 -3.03282 3208 ft 220 kts 334°
2026-05-01 12:58 56.01893 -3.04393 2968 ft 205 kts 327°
2026-05-01 12:58 56.02669 -3.06328 2753 ft 188 kts 284°
2026-05-01 12:58 56.02939 -3.08552 2863 ft 183 kts 278°
2026-05-01 12:59 56.03319 -3.13075 2883 ft 184 kts 254°
2026-05-01 12:59 56.02604 -3.14885 2841 ft 178 kts 224°
2026-05-01 12:59 56.01327 -3.18515 2364 ft 163 kts 237°
2026-05-01 13:00 56.00176 -3.21915 1920 ft 156 kts 237°
2026-05-01 13:00 55.99639 -3.23506 1728 ft 146 kts 237°
2026-05-01 13:01 55.98589 -3.26633 1325 ft 146 kts 238°
2026-05-01 13:01 55.98066 -3.28180 1121 ft 145 kts 238°
2026-05-01 13:01 55.97016 -3.31284 731 ft 148 kts 239°
2026-05-01 13:02 55.96489 -3.32860 532 ft 148 kts 240°
2026-05-01 13:07 55.95092 -3.35996 118 ft 14 kts 110°
2026-05-01 13:07 55.95047 -3.35852 118 ft 11 kts 132°
2026-05-01 13:07 55.94997 -3.35850 117 ft 8 kts 197°
2026-05-01 13:08 55.94944 -3.35844 118 ft 6 kts 158°
2026-05-01 13:08 55.94923 -3.35849 118 ft 3 kts 203°
2026-05-01 13:08 55.94910 -3.35878 120 ft 5 kts 238°
2026-05-01 13:08 55.94887 -3.35945 118 ft 6 kts 239°
2026-05-01 13:09 55.94884 -3.35955 117 ft 0 kts 239°